Terminal Aerodrome Forecast
Issued by NWS

Home | Current Version | Previous Version | Text Only | Print | Product List | Glossary On
Versions: 1 2 3 4 5 6 7 8 9 10 11 12 13 14 15 16 17 18 19 20 21 22 23 24
000
FTUS46 KOTX 011739
TAFSFF
TAF
KSFF 011739Z 0118/0218 05004KT P6SM SKC
     FM012100 26007KT P6SM SKC
     FM020100 27003KT P6SM FEW200
     FM020600 03002KT P6SM SCT200=

USA.gov is the U.S. government's official web portal to all federal, state and local government web resources and services.